User: anonymous   Login
Location: Prague
(50.0830°N, 14.4670°E)
Time: 07:08:12
(UTC+01:00)
Language:

Max Valier Satellite - Orbit

View from above orbital plane
View from above orbital plane
View from above satellite
View from above satellite

Ground track
Ground track

The orbit data is extracted from the following two-line orbital elements,

1 42778U 17036P   21338.89176069  .00002380  00000-0  99832-4 0  9996
2 42778  97.2339  21.7820 0009990 298.5685  61.4547 15.24390704247244
Epoch (UTC): 04 December 2021 21:24:08
Eccentricity: 0.0009990
inclination: 97.2339°
perigee height: 486 km
apogee height: 499 km
right ascension of ascending node: 21.7820°
argument of perigee: 298.5685°
revolutions per day: 15.24390704
mean anomaly at epoch: 61.4547°
orbit number at epoch: 24724

The dashed part of the orbit path shows where the satellite is in the earth's shadow,  

DLR